Date String (YYYY-MM-DD hh:mm:ss) UTC,Instrument flags,Ambient pressure (hPa),Sample flow (lpm),Bypass flow (lpm),Sample temperature (°C),Ambient temperature (°C),ASC tube jacket temperature (°C),LED temperature (°C),Box temperature (°C),Sample RH (%),Span deviation,Mass concentration (μg/m³),Mass concentration (μg/m³),Mass concentration (μg/m³)
DateTimeUTC,F1_M11,P_M11,Q1_M11,Q2_M11,T1_M11,T2_M11,T3_M11,T4_M11,T5_M11,U1_M11,ZSPAN_M11,X0_M11,X2_M11,X1_M11
2021-08-24 19:00:00,,0827.9,5.00,0.00,28.8,25.9,00.0,37.9,30.2,12.8,0001.8,0008.23,0004.14,0003.85
2021-08-24 19:01:00,,0827.7,5.01,0.00,28.8,26.4,00.0,37.9,30.4,12.3,0001.5,0007.80,0004.16,0003.85
2021-08-24 19:02:00,,0827.7,4.99,0.00,28.8,26.8,00.0,37.9,30.5,11.9,0001.6,0007.79,0004.14,0003.84
2021-08-24 19:03:00,,0827.7,5.00,0.00,28.8,27.2,00.0,37.9,30.6,12.2,0001.5,0007.75,0004.12,0003.84
2021-08-24 19:04:00,,0827.8,5.00,0.00,28.9,27.5,00.0,37.9,30.7,11.9,0001.5,0008.44,0004.12,0003.83
2021-08-24 19:05:00,,0827.8,5.00,0.00,28.9,27.8,00.0,37.9,30.8,12.2,0001.3,0008.35,0004.11,0003.82
2021-08-24 19:06:00,,0827.8,5.01,0.00,28.9,27.2,00.0,37.9,30.6,13.0,0001.1,0009.13,0004.11,0003.82
2021-08-24 19:07:00,,0827.9,5.00,0.00,28.8,25.8,00.0,37.9,30.2,13.2,0000.7,0009.36,0004.10,0003.80
2021-08-24 19:08:00,,0827.8,5.00,0.00,28.7,25.9,00.0,37.9,30.2,12.7,0000.9,0009.81,0004.11,0003.81
2021-08-24 19:09:00,,0827.7,5.00,0.00,28.7,26.3,00.0,37.8,30.4,12.0,0001.0,0010.11,0004.13,0003.81
2021-08-24 19:10:00,,0827.8,5.00,0.00,28.7,26.8,00.0,37.8,30.5,12.0,0001.4,0009.62,0004.12,0003.81
2021-08-24 19:11:00,,0827.8,5.01,0.00,28.8,27.2,00.0,37.8,30.6,12.4,0001.7,0009.57,0004.13,0003.81
2021-08-24 19:12:00,,0827.9,4.99,0.00,28.9,27.5,00.0,37.8,30.7,12.5,0001.5,0009.53,0004.13,0003.83
2021-08-24 19:13:00,,0827.9,5.01,0.00,28.9,27.8,00.0,37.9,30.8,13.0,0001.2,0009.42,0004.13,0003.84
2021-08-24 19:14:00,,0827.9,5.00,0.00,28.9,27.2,00.0,37.9,30.7,12.6,0000.6,0009.43,0004.13,0003.85
2021-08-24 19:15:00,,0827.9,5.00,0.00,28.8,25.8,00.0,37.9,30.2,12.0,0000.5,0008.77,0004.15,0003.86
2021-08-24 19:16:00,,0827.8,5.00,0.00,28.7,25.9,00.0,37.8,30.2,12.2,0000.4,0009.69,0004.17,0003.87
2021-08-24 19:17:00,,0827.7,4.99,0.00,28.7,26.3,00.0,37.8,30.4,12.7,0000.4,0009.32,0004.18,0003.87
2021-08-24 19:18:00,,0827.7,5.00,0.00,28.7,26.8,00.0,37.8,30.5,12.7,0000.6,0009.34,0004.21,0003.89
2021-08-24 19:19:00,,0827.7,5.01,0.00,28.8,27.1,00.0,37.8,30.6,12.3,0000.7,0008.85,0004.21,0003.89
2021-08-24 19:20:00,,0827.7,5.01,0.00,28.9,27.5,00.0,37.8,30.7,12.3,0001.3,0008.58,0004.17,0003.87
2021-08-24 19:21:00,,0827.7,5.00,0.00,28.9,27.6,00.0,37.9,30.8,12.3,0001.5,0008.63,0004.18,0003.88
2021-08-24 19:22:00,,0827.7,5.01,0.00,28.8,26.3,00.0,37.8,30.3,12.1,0002.0,0008.69,0004.19,0003.88
2021-08-24 19:23:00,,0827.7,5.00,0.00,28.7,25.6,00.0,37.8,30.2,12.1,0002.7,0008.82,0004.19,0003.87
2021-08-24 19:24:00,,0827.6,5.00,0.00,28.7,26.1,00.0,37.8,30.3,11.9,0002.9,0009.10,0004.20,0003.87
2021-08-24 19:25:00,,0827.7,5.00,0.00,28.7,26.5,00.0,37.8,30.4,11.7,0003.5,0009.10,0004.22,0003.86
2021-08-24 19:26:00,,0827.7,4.99,0.00,28.7,26.9,00.0,37.8,30.5,12.2,0003.5,0009.06,0004.20,0003.85
2021-08-24 19:27:00,,0827.7,5.00,0.00,28.8,27.3,00.0,37.8,30.6,11.3,0003.5,0008.17,0004.19,0003.85
2021-08-24 19:28:00,,0827.7,5.01,0.00,28.8,27.6,00.0,37.8,30.7,11.6,0003.2,0007.83,0004.18,0003.83
2021-08-24 19:29:00,,0827.7,4.99,0.00,28.9,27.9,00.0,37.8,30.8,11.6,0003.5,0007.66,0004.16,0003.82
2021-08-24 19:30:00,,0827.7,4.99,0.00,29.0,28.0,00.0,37.9,30.8,12.4,0003.4,0007.70,0004.14,0003.81
2021-08-24 19:31:00,,0827.7,5.01,0.00,28.9,26.6,00.0,37.9,30.5,11.5,0003.3,0007.66,0004.16,0003.82
2021-08-24 19:32:00,,0827.7,5.01,0.00,28.8,25.8,00.0,37.8,30.2,11.5,0002.8,0007.83,0004.16,0003.82
2021-08-24 19:33:00,,0827.7,5.01,0.00,28.7,26.2,00.0,37.8,30.3,12.1,0001.9,0007.81,0004.15,0003.81
2021-08-24 19:34:00,,0827.7,5.00,0.00,28.7,26.6,00.0,37.8,30.4,12.1,0001.7,0007.71,0004.14,0003.81
2021-08-24 19:35:00,,0827.6,5.00,0.00,28.8,27.0,00.0,37.8,30.6,12.0,0001.3,0007.43,0004.14,0003.81
2021-08-24 19:36:00,,0827.6,5.00,0.00,28.8,27.3,00.0,37.8,30.7,12.2,0001.4,0007.48,0004.15,0003.82
2021-08-24 19:37:00,,0827.7,5.00,0.00,28.9,27.7,00.0,37.8,30.8,11.5,0001.8,0007.50,0004.16,0003.83
2021-08-24 19:38:00,,0827.7,4.99,0.00,29.0,27.7,00.0,37.9,30.8,11.6,0001.8,0007.74,0004.18,0003.83
2021-08-24 19:39:00,,0827.6,5.01,0.00,28.9,26.4,00.0,37.9,30.4,11.9,0001.9,0007.80,0004.18,0003.84
2021-08-24 19:40:00,,0827.7,5.00,0.00,28.8,25.7,00.0,37.9,30.2,11.8,0002.1,0007.75,0004.20,0003.86
2021-08-24 19:41:00,,0827.6,5.01,0.00,28.7,26.1,00.0,37.8,30.3,11.7,0002.5,0007.74,0004.24,0003.88
2021-08-24 19:42:00,,0827.6,4.99,0.00,28.8,26.5,00.0,37.8,30.4,11.6,0002.4,0007.75,0004.27,0003.89
2021-08-24 19:43:00,,0827.6,5.02,0.00,28.8,26.9,00.0,37.8,30.5,12.3,0002.5,0007.70,0004.29,0003.90
2021-08-24 19:44:00,,0827.6,5.00,0.00,28.8,27.3,00.0,37.8,30.7,11.9,0002.6,0007.69,0004.31,0003.91
2021-08-24 19:45:00,,0827.6,5.01,0.00,28.9,27.7,00.0,37.9,30.8,11.7,0002.3,0007.68,0004.32,0003.92
2021-08-24 19:46:00,,0827.6,5.01,0.00,29.0,27.8,00.0,37.9,30.8,11.7,0002.5,0007.60,0004.29,0003.91
2021-08-24 19:47:00,,0827.6,5.00,0.00,28.9,26.5,00.0,37.9,30.5,11.7,0002.6,0007.59,0004.28,0003.91
2021-08-24 19:48:00,,0827.6,5.00,0.00,28.8,25.7,00.0,37.9,30.2,11.3,0002.5,0007.55,0004.27,0003.90
2021-08-24 19:49:00,,0827.6,5.01,0.00,28.7,26.1,00.0,37.9,30.3,11.2,0002.6,0007.37,0004.25,0003.91
2021-08-24 19:50:00,,0827.5,4.99,0.00,28.7,26.5,00.0,37.8,30.4,11.0,0002.7,0006.80,0004.22,0003.90
2021-08-24 19:51:00,,0827.5,5.00,0.00,28.8,27.0,00.0,37.8,30.6,12.3,0002.8,0006.76,0004.21,0003.88
2021-08-24 19:52:00,,0827.5,4.99,0.00,28.8,27.3,00.0,37.8,30.7,12.8,0002.6,0006.78,0004.21,0003.87
2021-08-24 19:53:00,,0827.5,5.02,0.00,28.9,27.6,00.0,37.9,30.8,11.6,0002.5,0006.63,0004.19,0003.88
2021-08-24 19:54:00,,0827.5,4.99,0.00,29.0,28.0,00.0,37.9,30.9,11.3,0002.6,0006.40,0004.17,0003.88
2021-08-24 19:55:00,,0827.5,5.01,0.00,29.0,27.4,00.0,37.9,30.7,11.5,0002.9,0006.40,0004.15,0003.88
2021-08-24 19:56:00,,0827.5,5.00,0.00,28.9,25.9,00.0,37.9,30.3,11.9,0003.3,0006.30,0004.14,0003.88
2021-08-24 19:57:00,,0827.6,5.00,0.00,28.8,25.9,00.0,37.9,30.2,11.1,0003.2,0006.34,0004.13,0003.89
2021-08-24 19:58:00,,0827.5,4.99,0.00,28.8,26.3,00.0,37.9,30.4,10.7,0003.2,0006.35,0004.14,0003.89
2021-08-24 19:59:00,,0827.4,4.99,0.00,28.8,26.8,00.0,37.8,30.5,11.2,0003.3,0006.27,0004.14,0003.90
